Regional Weather Roundup
Issued by NWS

Home | Current Version | Previous Version | Text Only | Print | Product List | Glossary Off
Versions: 1 2 3 4 5 6 7 8 9 10 11 12 13 14 15 16 17 18 19 20 21 22 23 24 25 26 27 28 29 30 31 32 33 34 35 36 37 38 39 40 41 42 43 44 45 46 47 48 49 50

000
ASUS45 KBOU 051407
RWRCO

WEATHER ROUNDUP FOR COLORADO
NATIONAL WEATHER SERVICE DENVER/BOULDER CO
700 AM MST THU MAR 05 2015

NOTE: "FAIR" INDICATES FEW OR NO CLOUDS BELOW 12000 FEET WITH NO
SIGNIFICANT WEATHER AND/OR OBSTRUCTIONS TO VISIBILITY.

COZ001>005-013-030-031-051500-
...NORTHWEST COLORADO...

CITY           SKY/WX    TMP DP  RH WIND       PRES   REMARKS
CRAIG          PTCLDY     6  -1  73 CALM      30.36R
HAYDEN         PTCLDY     5  -2  72 E13       30.33S WCI -12
MEEKER         PTCLDY    10   2  69 CALM      30.36S
MOUNT WERNER   NOT AVBL
STEAMBOAT SPGS PTCLDY     1  -4  81 CALM      30.34R
WALDEN         PTCLDY     9   0  66 SE10      30.23S WCI  -6
$$

COZ006>008-011-051500-
...WEST CENTRAL VALLEYS...

CITY           SKY/WX    TMP DP  RH WIND       PRES   REMARKS
GRAND JUNCTION CLEAR     21  10  62 E9        30.40R WCI  11
MONTROSE       CLEAR     18   7  62 SE8       30.42R WCI   8
EAGLE          PTCLDY     3   0  85 CALM      30.45R
RIFLE          PTCLDY    15   8  73 S5        30.43R WCI   8
DELTA          CLEAR     20  10  66 E6        30.43R WCI  12
NUCLA          CLEAR     19  10  68 CALM      30.41R
$$

COZ017>023-064>068-051500-
...SOUTHWEST COLORADO...

CITY           SKY/WX    TMP DP  RH WIND       PRES   REMARKS
DURANGO        PTCLDY     9   4  80 CALM      30.35R
CORTEZ         CLEAR     15   8  73 CALM      30.37R
PAGOSA SPRINGS PTCLDY     0  -4  82 CALM      30.32R
TELLURIDE      PTCLDY     8  -2  65 SE8       30.31S WCI  -5
WOLF CREEK PAS PTCLDY     3  -2  78 SW13      30.25R WCI -14
$$

COZ009-010-012-014-032>034-037-058>063-051500-
...CENTRAL COLORADO...

CITY           SKY/WX    TMP DP  RH WIND       PRES   REMARKS
ASPEN          PTCLDY     3  -5  69 SW9       30.33R WCI -12
BUENA VISTA    PTCLDY     7  -6  56 S3        30.26S
COPPER MTN     NOT AVBL
BERTHOUD PASS  FAIR      -4  -9  77 NW35G41   30.08R WCI -33
COTTONWOOD PAS PTCLDY    14 -17  24 S5        30.18R WCI   6
GUNNISON       MOCLDY    -6 -17  59 NE5       30.42R WCI -17
KREMMLING      MOCLDY     0  -8  71 CALM      30.39R
LEADVILLE      PTCLDY    -7 -13  75 NE8       30.23R WCI -23
SALIDA         PTCLDY    18  -5  36 NW12G18   30.34R WCI   5
SUNLIGHT       PTCLDY     9   5  85 CALM        N/A
WILKERSON PASS PTCLDY     9 -13  37 NW9G20    30.14R WCI  -5
$$

COZ069>075-051500-
...SAN LUIS VALLEY/SANGRE DE CRISTO MOUNTAINS...

CITY           SKY/WX    TMP DP  RH WIND       PRES   REMARKS
ALAMOSA        PTCLDY     7   0  73 SW6       30.33R WCI  -3
LA VETA PASS   PTCLDY     5  -8  56 MISG      30.16R
SAGUACHE       PTCLDY    14   1  57 NW8       30.32R WCI   3
$$

COZ035-036-038>040-051500-
...NORTHERN COLORADO FRONT RANGE...

CITY           SKY/WX    TMP DP  RH WIND       PRES   REMARKS
DENVER INTL AP PTCLDY    18   1  47 S17       30.16R WCI   3
DMNS CITY PARK   N/A     17   1  49 SW6       30.17S WCI   9
AURORA         PTCLDY    15  -1  50 S14       30.15S WCI   0
FRONT RANGE AP NOT AVBL
ERIE MUNI ARPT PTCLDY     3   0  88 SW5       30.19R WCI  -6
BOULDER MUN AP PTCLDY     9   5  85 S3        30.17S
CENTENNIAL     PTCLDY    20  -1  40 S13       30.15S WCI   7
BROOMFIELD     PTCLDY    10   5  79 N7        30.15R WCI   0
FORT COLLINS   MOCLDY     7   1  78 CALM      30.19S
LONGMONT       MOCLDY     4   0  81 CALM      30.21R
$$

COZ041-046-047-076>085-087-088-051500-
...PIKES PEAK/PALMER DIVIDE AND SOUTHERN FOOTHILLS...

CITY           SKY/WX    TMP DP  RH WIND       PRES   REMARKS
COLO. SPRINGS  MOCLDY     3  -5  69 N10       30.20R WCI -12
A. F. ACADEMY  MOCLDY     2  -5  71 N10       30.18R WCI -13
ELLICOTT       NOT AVBL
FALCON         MOCLDY     5  -7  58 W5        30.18R WCI  -4
FORT CARSON    PTCLDY     5   2  87 W3        30.19R
LIMON          PTCLDY    -5 -11  75 N5        30.22R WCI -16
MONUMENT HILL  PTCLDY    10  -6  48 SW10      30.13S WCI  -3
TRINIDAD       PTCLDY    11   4  73 W15       30.25R WCI  -5
$$

COZ042>045-048>051-090-091-051500-
...NORTHEAST COLORADO...

CITY           SKY/WX    TMP DP  RH WIND       PRES   REMARKS
GREELEY ARPT   MOCLDY     5  -4  66 CALM      30.20S
AKRON          CLEAR     15   5  64 SW10      30.20R WCI   2
BURLINGTON     CLEAR     16   8  71 W9        30.26S WCI   4
WRAY           PTCLDY    12   7  79 SW6       30.26S WCI   2
STERLING       CLEAR     10   7  85 SW9       30.23S WCI  -2
HOLYOKE        NOT AVBL
FORT MORGAN    CLEAR      6   2  81 W5        30.22S WCI  -2
$$

COZ086-089-092>099-051500-
...SOUTHEAST COLORADO...

CITY           SKY/WX    TMP DP  RH WIND       PRES   REMARKS
PUEBLO         MOCLDY     4   0  83 CALM      30.28R
LA JUNTA       PTCLDY    12   6  77 W9        30.31S WCI   0
LAMAR          CLEAR     13  10  88 SW9       30.33R WCI   1
SPRINGFIELD      N/A      9   5  84 W6        30.30F WCI  -1
$$



USA.gov is the U.S. government's official web portal to all federal, state and local government web resources and services.